Header for Extended Forecast Station List Page

Search by: ID | Name | Date | Parm | Value | Avg | % Avg
Sort by: ID | Name | Date | Parm | Value | Avg | % Avg

Enter search or view all records.

Click on id for station plot
#IDNameDateParmValueAvg% Avg
0BULO3BULLY CREEK-BULLY CREEK DAM02-11-2019INFLOW (KAF)229248
1MYKO3MCKAY CREEK-NEAR PILOT ROCK02-11-2019DISCHARGE (KAF)5338139
2RIDI1WILLOW CREEK-RIRIE DAM02-11-2019INFLOW (KAF)5542133
3BERO3MALHEUR-AGENCY VALLEY DAM02-11-2019INFLOW (KAF)325262
4LWRI1LITTLE WOOD-LITTLE WOOD DAM02-11-2019INFLOW (KAF)456371
5VALO3MALHEUR-NEAR VALE02-11-2019DISCHARGE (KAF)556485
6WRMO3MALHEUR-WARM SPRINGS DAM02-11-2019INFLOW (KAF)8374112
7DLGM8CLARK FORK-AT DEER LODGE02-11-2019DISCHARGE (KAF)687887
8HWRI1BIG LOST-AT HOWELL RANCH NEAR CHILLY02-11-2019DISCHARGE (KAF)678182
9MACI1BIG LOST-MACKAY RESERVOIR NEAR MACKAY02-11-2019INFLOW (KAF)618274
10BUDW1BUMPING-BUMPING LAKE DAM02-11-2019INFLOW (KAF)858599
11GIBO3UMATILLA-NEAR GIBBON02-11-2019DISCHARGE (KAF)10285121
12DEDI1DEADWOOD-NEAR LOWMAN02-11-2019INFLOW (KAF)799384
13KADW1KACHESS-KACHESS DAM02-11-2019INFLOW (KAF)929696
14KEDW1YAKIMA-KEECHELUS LAKE02-11-2019INFLOW (KAF)101100100
15EASW1YAKIMA-AT EASTON02-11-2019DISCHARGE (KAF)7110171
16PIHI1PORTNEUF-AT POCATELLO02-11-2019DISCHARGE (KAF)8210280
17ARDW1ENTIAT-NEAR ARDENVOIR02-11-2019DISCHARGE (KAF)8911974
18TNAW1TEANAWAY-BELOW FORKS02-11-2019DISCHARGE (KAF)144131110
19HALI1BIG WOOD-AT HAILEY02-11-2019DISCHARGE (KAF)11414281
20RILW1TIETON-RIMROCK LAKE NEAR RIMROCK02-11-2019INFLOW (KAF)11914582
21SATI1ST MARIES-NEAR SANTA02-11-2019DISCHARGE (KAF)15015099
22HOTI1BRUNEAU-NEAR HOT SPRINGS02-11-2019DISCHARGE (KAF)11115572
23UMAO3UMATILLA-NEAR UMATILLA02-11-2019DISCHARGE (KAF)225158142
24RCCM8ROCK CREEK-NEAR CLINTON02-11-2019DISCHARGE (KAF)14316586
25IPDI1HENRYS FORK-ISLAND PARK DAM02-11-2019INFLOW (KAF)171171100
26MAGI1BIG WOOD-MAGIC DAM02-11-2019INFLOW (KAF)13719271
27PDTO3UMATILLA-AT PENDLETON02-11-2019DISCHARGE (KAF)228194118
28TCHW1WALLA WALLA-NEAR TOUCHET02-11-2019DISCHARGE (KAF)217204107
29STRM8ST. REGIS-NEAR ST. REGIS02-11-2019DISCHARGE (KAF)16522374
30TEAI1TETON-NEAR ST. ANTHONY02-11-2019DISCHARGE (KAF)20822493
31CHEI1FALL RIVER-NEAR CHESTER02-11-2019DISCHARGE (KAF)272260104
32HODO3HOOD-NEAR TUCKER BRIDGE02-11-2019DISCHARGE (KAF)26828395
33CLUW1CLE ELUM-CLE ELUM LAKE02-11-2019INFLOW (KAF)299290103
34CLFW1NACHES-NEAR CLIFFDEL02-11-2019DISCHARGE (KAF)25729986
35BIGI1BOISE-AT GLENWOOD BRIDGE02-11-2019DISCHARGE (KAF)32432998
36UNDW1WHITE SALMON-NEAR UNDERWOOD02-11-2019DISCHARGE (KAF)29436082
37OWYO3OWYHEE-OWYHEE DAM02-11-2019INFLOW (KAF)26236372
38NACW1NACHES-NEAR NACHES02-11-2019DISCHARGE (KAF)396376105
39ARAI1SF BOISE-ANDERSON RANCH DAM02-11-2019INFLOW (KAF)31740478
40CSDI1NF PAYETTE-CASCADE DAM02-11-2019INFLOW (KAF)37640493
41PARI1BOISE-NEAR PARMA02-11-2019DISCHARGE (KAF)36941090
42WSRI1WEISER-NEAR WEISER02-11-2019DISCHARGE (KAF)519431120
43JLKW4SNAKE-JACKSON LAKE AT DAM02-11-2019INFLOW (KAF)41844793
44PITW1KLICKITAT-NEAR PITT02-11-2019DISCHARGE (KAF)43553282
45PATW1METHOW-NEAR PATEROS02-11-2019DISCHARGE (KAF)39955672
46BONM8BLACKFOOT-NEAR BONNER02-11-2019DISCHARGE (KAF)49756189
47ANTI1HENRYS FORK-AT ST. ANTHONY02-11-2019DISCHARGE (KAF)577576100
48UMTW1YAKIMA-AT UMTANUM02-11-2019DISCHARGE (KAF)56660494
49CHDW1CHELAN-LAKE CHELAN DAM02-11-2019INFLOW (KAF)48661879
50MONO3NF JOHN DAY-AT MONUMENT02-11-2019DISCHARGE (KAF)53462086
51PRTI1PRIEST-NEAR PRIEST RIVER02-11-2019DISCHARGE (KAF)56565287
52PARW1YAKIMA-NEAR PARKER02-11-2019DISCHARGE (KAF)53065581
53REXI1HENRYS FORK-AT REXBURG02-11-2019DISCHARGE (KAF)62566994
54MILI1SNAKE-AT MILNER02-11-2019DISCHARGE (KAF)39268457
55JKSW4SNAKE-NEAR JACKSON02-11-2019DISCHARGE (KAF)74982191
56BITM8BITTERROOT-NEAR MISSOULA02-11-2019DISCHARGE (KAF)67682282
57SERO3JOHN DAY-AT SERVICE CK02-11-2019DISCHARGE (KAF)73289882
58PESW1WENATCHEE-AT PESHASTIN02-11-2019DISCHARGE (KAF)87697190
59WGCM8MF FLATHEAD-NEAR WEST GLACIER02-11-2019DISCHARGE (KAF)81498483
60TONW1OKANOGAN-NEAR TONASKET02-11-2019DISCHARGE (KAF)711101670
61FCFM8NF FLATHEAD-NEAR COLUMBIA FALLS02-11-2019DISCHARGE (KAF)767102375
62KIOW1YAKIMA-AT KIONA02-11-2019DISCHARGE (KAF)846103182
63EMMI1PAYETTE-NEAR EMMETT02-11-2019DISCHARGE (KAF)781103376
64ABOM8CLARK FORK-ABOVE MISSOULA02-11-2019DISCHARGE (KAF)883103485
65ALPW4SNAKE-NEAR ALPINE02-11-2019DISCHARGE (KAF)998109491
66TRYO3GRANDE RONDE-TROY02-11-2019DISCHARGE (KAF)1091118392
67LAUW1KETTLE-AT LAURIER02-11-2019DISCHARGE (KAF)998130577
68HHWM8SF FLATHEAD-HUNGRY HORSE DAM02-11-2019INFLOW (KAF)1147134186
69BFTI1SNAKE-NEAR BLACKFOOT02-11-2019DISCHARGE (KAF)1155152876
70SNAI1SNAKE-AT BLACKFOOT02-11-2019DISCHARGE (KAF)1182153677
71MODO3DESCHUTES-AT MOODY NR BIGGS02-11-2019DISCHARGE (KAF)1393156889
72HEII1SNAKE-NEAR HEISE02-11-2019DISCHARGE (KAF)1555170391
73PLDI1SF SNAKE-PALISADES DAM02-11-2019INFLOW (KAF)1526172189
74SIFI1SNAKE-AB EAGLE ROCK NR IDAHO FALLS02-11-2019DISCHARGE (KAF)1560175489
75SHYI1SNAKE-NEAR SHELLEY02-11-2019DISCHARGE (KAF)1443176882
76BELM8CLARK FORK-BELOW MISSOULA02-11-2019DISCHARGE (KAF)1559187683
77AFRI1SNAKE-AMERICAN FALLS RESERVOIR02-11-2019INFLOW (KAF)1749222079
78DWRI1NF CLEARWATER-DWORSHAK DAM02-11-2019INFLOW (KAF)2406242299
79SRGM8CLARK FORK-AT ST REGIS02-11-2019DISCHARGE (KAF)2147257483
80SWAI1SNAKE-BELOW SWAN FALLS02-11-2019DISCHARGE (KAF)2101271977
81COEI1COEUR D ALENE-COEUR D ALENE LAKE02-11-2019INFLOW (KAF)2507277390
82CFMM8FLATHEAD-AT COLUMBIA FALLS02-11-2019DISCHARGE (KAF)2115290373
83LYDM8KOOTENAI-LIBBY DAM02-11-2019INFLOW (KAF)2151314168
84LLKW1SPOKANE-AT LONGLAKE02-11-2019INFLOW (KAF)2722332782
85LEOI1KOOTENAI-AT LEONIA02-11-2019DISCHARGE (KAF)2581333477
86KERM8FLATHEAD-KERR DAM02-11-2019INFLOW (KAF)2370369264
87ORFI1CLEARWATER-AT OROFINO02-11-2019DISCHARGE (KAF)3700376098
88WHBI1SALMON-AT WHITEBIRD02-11-2019DISCHARGE (KAF)3045384979
89WEII1SNAKE-AT WEISER02-11-2019DISCHARGE (KAF)4050530476
90BRNI1SNAKE-BROWNLEE DAM02-11-2019INFLOW (KAF)4501572979
91SPDI1CLEARWATER-AT SPALDING02-11-2019DISCHARGE (KAF)5251596288
92NOXM8CLARK FORK-NOXON RAPIDS DAM02-11-2019INFLOW (KAF)4363688263
93CABI1CLARK FORK-CABINET GORGE DAM02-11-2019INFLOW (KAF)4836721667
94ALFW1PEND OREILLE-ALBENI FALLS DAM02-11-2019INFLOW (KAF)6009874569
95ANAW1SNAKE-NEAR ANATONE02-11-2019DISCHARGE (KAF)84571168072
96LGDW1SNAKE-LOWER GRANITE DAM02-11-2019INFLOW (KAF)137081766578
97LGSW1SNAKE-LITTLE GOOSE DAM02-11-2019INFLOW (KAF)137081770077
98IHDW1SNAKE-ICE HARBOR DAM02-11-2019INFLOW (KAF)139001779678
99LMNW1SNAKE-LOWER MONUMENTAL DAM02-11-2019INFLOW (KAF)139001794677
100CHJW1COLUMBIA-CHIEF JOSEPH DAM02-11-2019INFLOW (KAF)205822709876
101GCDW1COLUMBIA-GRAND COULEE DAM02-11-2019INFLOW (KAF)215752782678
102WELW1COLUMBIA-WELLS DAM02-11-2019INFLOW (KAF)216712873675
103RRHW1COLUMBIA-ROCKY REACH DAM02-11-2019INFLOW (KAF)219682915175
104WANW1COLUMBIA-WANAPUM DAM02-11-2019INFLOW (KAF)228462976177
105PRWW1COLUMBIA-PRIEST RAPIDS DAM02-11-2019INFLOW (KAF)228393023876
106MCDW1COLUMBIA-MCNARY DAM02-11-2019INFLOW (KAF)375975011175
107TDAO3COLUMBIA-THE DALLES DAM02-11-2019INFLOW (KAF)402015210177
108JDAO3COLUMBIA-JOHN DAY DAM02-11-2019INFLOW (KAF)398405272876
109BONO3COLUMBIA-BONNEVILLE DAM02-11-2019INFLOW (KAF)411625459875
110BFEI1KOOTENAI-AT BONNERS FERRY02-11-2019STAGE (FT)MMM
111DRMM8CLARK FORK-NR DRUMMOND02-11-2019DISCHARGE (KAF)212MM
112HOPI1PEND OREILLE-PEND OREILLE LAKE NR HOPE02-11-2019LAKE ELEVATION (FT)MMM
113SPOW1SPOKANE-AT SPOKANE02-11-2019DISCHARGE (KAF)2359MM
114SJMI1ST JOE-AT ST MARIES02-11-2019STAGE (FT)MMM
115CIBW1COLUMBIA-AT INTL BOUNDARY02-11-2019DISCHARGE (KAF)17823MM
116LUCI1BOISE-LUCKY PEAK DAM02-11-2019INFLOW (KAF)897MM